When you browse on this site, cookies collect data to enhance your experience and personalize the content and advertising you see.
Visit our Privacy Policy to learn more. By continuing to use the site, you agree to this use of cookies and data.

Hourly Weather Polotsk

Today, 7 July, Tuesday

Time Temperature Precipitation Wind Pressure Humidity
00:00 +19°C° 0.8 mm 1 mps 741 mmHg 96%
01:00 +19°C° 0.8 mm 1 mps 741 mmHg 96%
02:00 +18°C° 0 mm 2 mps 741 mmHg 97%
03:00 +17°C° 0.8 mm 2 mps 741 mmHg 96%
04:00 +16°C° 0.8 mm 3 mps 741 mmHg 95%
05:00 +15°C° 0.8 mm 4 mps 741 mmHg 93%
06:00 +14°C° 0.4 mm 3 mps 741 mmHg 93%
07:00 +14°C° 0.4 mm 3 mps 742 mmHg 92%
08:00 +14°C° 0.4 mm 2 mps 742 mmHg 91%
09:00 +14°C° 0.2 mm 2 mps 742 mmHg 89%
10:00 +15°C° 0.2 mm 2 mps 742 mmHg 88%
11:00 +15°C° 0.2 mm 2 mps 742 mmHg 87%
12:00 +15°C° 0.1 mm 2 mps 742 mmHg 88%
13:00 +15°C° 0.1 mm 2 mps 742 mmHg 90%
14:00 +15°C° 0.1 mm 2 mps 742 mmHg 91%
15:00 +15°C° 0.2 mm 2 mps 742 mmHg 91%
16:00 +15°C° 0.2 mm 1 mps 742 mmHg 90%
17:00 +15°C° 0.2 mm 1 mps 742 mmHg 89%
18:00 +15°C° 0.1 mm 1 mps 742 mmHg 89%
19:00 +14°C° 0.1 mm 1 mps 742 mmHg 90%
20:00 +14°C° 0.1 mm 1 mps 742 mmHg 90%
21:00 +14°C° 0 mm 2 mps 742 mmHg 91%
22:00 +14°C° 0 mm 2 mps 742 mmHg 92%
23:00 +14°C° 0 mm 2 mps 743 mmHg 93%

Tomorrow, 8 July, Wednesday

Time Temperature Precipitation Wind Pressure Humidity
00:00 +13°C° 0 mm 2 mps 743 mmHg 94%
01:00 +13°C° 0 mm 2 mps 743 mmHg 94%
02:00 +12°C° 0 mm 3 mps 743 mmHg 95%
03:00 +12°C° 0 mm 3 mps 743 mmHg 95%
04:00 +11°C° 0 mm 3 mps 743 mmHg 95%
05:00 +11°C° 0 mm 3 mps 743 mmHg 96%
06:00 +12°C° 0 mm 3 mps 743 mmHg 90%
07:00 +13°C° 0 mm 3 mps 743 mmHg 85%
08:00 +14°C° 0 mm 3 mps 743 mmHg 80%
09:00 +16°C° 0.1 mm 3 mps 743 mmHg 74%
10:00 +18°C° 0.1 mm 4 mps 743 mmHg 68%
11:00 +19°C° 0.1 mm 4 mps 743 mmHg 62%
12:00 +19°C° 0 mm 4 mps 743 mmHg 59%
13:00 +20°C° 0 mm 4 mps 743 mmHg 56%
14:00 +20°C° 0 mm 4 mps 743 mmHg 52%
15:00 +19°C° 0.3 mm 4 mps 743 mmHg 60%
16:00 +19°C° 0.3 mm 4 mps 743 mmHg 67%
17:00 +18°C° 0.3 mm 4 mps 743 mmHg 74%
18:00 +17°C° 0.2 mm 4 mps 743 mmHg 79%
19:00 +14°C° 0.2 mm 3 mps 743 mmHg 84%
20:00 +14°C° 0.2 mm 2 mps 744 mmHg 89%
21:00 +13°C° 0 mm 2 mps 744 mmHg 91%
22:00 +12°C° 0 mm 2 mps 744 mmHg 93%
23:00 +10°C° 0 mm 2 mps 744 mmHg 95%

Day after tomorrow, 9 July, Thursday

Time Temperature Precipitation Wind Pressure Humidity
00:00 +10°C° 0 mm 2 mps 744 mmHg 95%
01:00 +10°C° 0 mm 2 mps 745 mmHg 96%
02:00 +10°C° 0 mm 2 mps 745 mmHg 96%
03:00 +10°C° 0 mm 2 mps 745 mmHg 96%
04:00 +9°C° 0 mm 2 mps 745 mmHg 95%
05:00 +9°C° 0 mm 2 mps 745 mmHg 95%
06:00 +12°C° 0 mm 2 mps 746 mmHg 88%
07:00 +14°C° 0 mm 2 mps 746 mmHg 81%
08:00 +15°C° 0 mm 2 mps 746 mmHg 75%
09:00 +16°C° 0.4 mm 3 mps 746 mmHg 74%
10:00 +17°C° 0.4 mm 3 mps 746 mmHg 73%
11:00 +18°C° 0.4 mm 3 mps 746 mmHg 72%
12:00 +18°C° 0.1 mm 4 mps 746 mmHg 68%
13:00 +19°C° 0.1 mm 4 mps 746 mmHg 64%
14:00 +20°C° 0.1 mm 4 mps 746 mmHg 60%
15:00 +20°C° 0.2 mm 4 mps 747 mmHg 61%
16:00 +19°C° 0.2 mm 4 mps 747 mmHg 63%
17:00 +19°C° 0.2 mm 4 mps 747 mmHg 64%
18:00 +18°C° 0.1 mm 4 mps 747 mmHg 72%
19:00 +16°C° 0.1 mm 3 mps 747 mmHg 79%
20:00 +15°C° 0.1 mm 2 mps 747 mmHg 86%
21:00 +14°C° 0 mm 2 mps 747 mmHg 89%
22:00 +13°C° 0 mm 2 mps 748 mmHg 91%
23:00 +12°C° 0 mm 2 mps 748 mmHg 94%

10 July, Friday

Time Temperature Precipitation Wind Pressure Humidity
00:00 +12°C° 0 mm 2 mps 748 mmHg 94%
01:00 +10°C° 0 mm 2 mps 748 mmHg 95%
02:00 +10°C° 0 mm 2 mps 749 mmHg 96%
03:00 +10°C° 0 mm 2 mps 749 mmHg 95%
04:00 +10°C° 0 mm 2 mps 749 mmHg 95%
05:00 +10°C° 0 mm 2 mps 749 mmHg 95%
06:00 +13°C° 0 mm 2 mps 749 mmHg 88%
07:00 +15°C° 0 mm 2 mps 749 mmHg 81%
08:00 +17°C° 0 mm 2 mps 749 mmHg 74%
09:00 +18°C° 0 mm 2 mps 749 mmHg 69%
10:00 +19°C° 0 mm 3 mps 749 mmHg 63%
11:00 +21°C° 0 mm 3 mps 749 mmHg 58%
12:00 +21°C° 0 mm 4 mps 749 mmHg 57%
13:00 +22°C° 0 mm 4 mps 749 mmHg 56%
14:00 +22°C° 0 mm 4 mps 749 mmHg 55%
15:00 +21°C° 0.1 mm 4 mps 748 mmHg 63%
16:00 +19°C° 0.1 mm 3 mps 748 mmHg 71%
17:00 +18°C° 0.1 mm 2 mps 748 mmHg 79%
18:00 +18°C° 0 mm 3 mps 747 mmHg 80%
19:00 +18°C° 0 mm 3 mps 747 mmHg 81%
20:00 +18°C° 0 mm 4 mps 746 mmHg 82%
21:00 +18°C° 0 mm 4 mps 746 mmHg 80%
22:00 +17°C° 0 mm 5 mps 746 mmHg 79%
23:00 +17°C° 0 mm 6 mps 745 mmHg 77%

11 July, Saturday

Time Temperature Precipitation Wind Pressure Humidity
00:00 +19°C° 0 mm 6 mps 745 mmHg 79%
01:00 +19°C° 0 mm 6 mps 744 mmHg 80%
02:00 +18°C° 0 mm 7 mps 744 mmHg 81%
03:00 +18°C° 0.1 mm 7 mps 744 mmHg 84%
04:00 +18°C° 0.1 mm 7 mps 744 mmHg 87%
05:00 +18°C° 0.1 mm 7 mps 744 mmHg 90%
06:00 +19°C° 0.1 mm 6 mps 744 mmHg 89%
07:00 +20°C° 0.1 mm 6 mps 744 mmHg 88%
08:00 +20°C° 0.1 mm 5 mps 745 mmHg 88%
09:00 +20°C° 0.1 mm 5 mps 745 mmHg 83%
10:00 +20°C° 0.1 mm 5 mps 745 mmHg 79%
11:00 +20°C° 0.1 mm 5 mps 746 mmHg 75%
12:00 +19°C° 0 mm 5 mps 746 mmHg 72%
13:00 +18°C° 0 mm 4 mps 746 mmHg 69%
14:00 +17°C° 0 mm 4 mps 746 mmHg 66%
15:00 +18°C° 0 mm 4 mps 747 mmHg 66%
16:00 +18°C° 0 mm 4 mps 747 mmHg 66%
17:00 +19°C° 0 mm 4 mps 747 mmHg 65%
18:00 +18°C° 0 mm 3 mps 747 mmHg 70%
19:00 +17°C° 0 mm 3 mps 747 mmHg 74%
20:00 +16°C° 0 mm 2 mps 747 mmHg 79%
21:00 +15°C° 0 mm 2 mps 747 mmHg 81%
22:00 +14°C° 0 mm 2 mps 748 mmHg 82%
23:00 +13°C° 0 mm 2 mps 748 mmHg 83%

12 July, Sunday

Time Temperature Precipitation Wind Pressure Humidity
00:00 +13°C° 0 mm 2 mps 748 mmHg 84%
01:00 +12°C° 0 mm 2 mps 748 mmHg 84%
02:00 +12°C° 0 mm 2 mps 748 mmHg 84%
03:00 +12°C° 0 mm 2 mps 748 mmHg 84%
04:00 +12°C° 0 mm 2 mps 748 mmHg 85%
05:00 +12°C° 0 mm 2 mps 748 mmHg 85%
06:00 +13°C° 0.1 mm 2 mps 748 mmHg 84%
07:00 +13°C° 0.1 mm 2 mps 749 mmHg 83%
08:00 +14°C° 0.1 mm 2 mps 749 mmHg 83%
09:00 +15°C° 0.2 mm 2 mps 749 mmHg 81%
10:00 +15°C° 0.2 mm 2 mps 749 mmHg 79%
11:00 +16°C° 0.2 mm 2 mps 749 mmHg 77%
12:00 +18°C° 0.1 mm 1 mps 749 mmHg 72%
13:00 +19°C° 0.1 mm 1 mps 749 mmHg 66%
14:00 +20°C° 0.1 mm 1 mps 749 mmHg 61%
15:00 +19°C° 0.2 mm 1 mps 748 mmHg 65%
16:00 +19°C° 0.2 mm 1 mps 748 mmHg 68%
17:00 +19°C° 0.2 mm 1 mps 748 mmHg 71%
18:00 +18°C° 0.3 mm 1 mps 748 mmHg 77%
19:00 +16°C° 0.3 mm 1 mps 748 mmHg 83%
20:00 +15°C° 0.3 mm 1 mps 748 mmHg 89%
21:00 +14°C° 0.1 mm 1 mps 748 mmHg 91%
22:00 +13°C° 0.1 mm 1 mps 748 mmHg 92%
23:00 +13°C° 0.1 mm 1 mps 748 mmHg 94%
Show more